Weather History for KHTS - June, 2013

Change the Weather History Date:

Wednesday, June 26, 2013

  Actual Average Record
Temperature  
Mean Temperature 78 °F 75 °F  
Max Temperature 87 °F 85 °F 99 °F (1954)
Min Temperature 68 °F 64 °F 47 °F (1905)
Degree Days  
Heating Degree Days 0 0  
Month to date heating degree days 0 9  
Since 1 June heating degree days 0 9  
Since 1 July heating degree days 4527 4509  
Cooling Degree Days 13 10  
Month to date cooling degree days 222 187  
Year to date cooling degree days 392 300  
Since 1 June cooling degree days 222 187  
Growing Degree Days 28 (Base 50)    
Moisture  
Dew Point 69 °F    
Average Humidity 76    
Maximum Humidity 90    
Minimum Humidity 61    
Precipitation  
Precipitation 0.24 in 0.11 in 1.94 in (1918)
Month to date precipitation 3.31 3.42  
Year to date precipitation 16.89 21.50  
Snow  
Snow 0.00 in - - ()
Month to date snowfall 0.0  
Since 1 September snowfall 12.4  
Snow Depth 0.00 in    
Sea Level Pressure  
Sea Level Pressure 29.90 in    
Wind  
Wind Speed 5 mph (SSW)    
Max Wind Speed 25 mph    
Max Gust Speed 40 mph    
Visibility 9 miles    
Events Rain , Thunderstorm    
T = Trace of Precipitation, MM = Missing Value Source: NWS Daily Summary

Daily Weather History Graph

Daily Weather History Graph

Search for Another Location

Airport or City:

Trip Planner

Search our weather history database for the weather conditions in past years. The results will help you decide how hot, cold, wet, or windy it might be!

Date:

Astronomy

Jun. 26, 2013 Rise Set
Actual Time 6:08 AM EDT 8:57 PM EDT
Civil Twilight 5:36 AM EDT 9:29 PM EDT
Nautical Twilight 4:56 AM EDT 10:09 PM EDT
Astronomical Twilight 4:11 AM EDT 10:54 PM EDT
Moon 11:24 PM EDT (6/26) 9:55 AM EDT (6/26)
Length of Visible Light 15h 53m
Length of Day
14h 49m
Waning Gibbous, 85% of the Moon is Illuminated
Jun 26
Waning Gibbous
Jun 30
Last Quarter
Jul 8
New
Jul 15
First Quarter
Jul 22
Full

Hourly Weather History & Observations

Time (EDT) Temp. Heat Index Dew Point Humidity Pressure Visibility Wind Dir Wind Speed Gust Speed Precip Events Conditions
12:51 AM 75.9 °F - 70.0 °F 82% 29.95 in 10.0 mi SSW 5.8 mph - N/A   Clear
1:51 AM 75.0 °F - 70.0 °F 84% 29.94 in 10.0 mi SSW 4.6 mph - N/A   Clear
2:51 AM 73.9 °F - 70.0 °F 87% 29.93 in 10.0 mi SSW 4.6 mph - N/A   Clear
3:51 AM 73.9 °F - 70.0 °F 87% 29.93 in 10.0 mi SSW 6.9 mph - N/A   Scattered Clouds
4:51 AM 73.9 °F - 69.1 °F 85% 29.92 in 10.0 mi SSW 5.8 mph - N/A   Scattered Clouds
5:51 AM 73.0 °F - 69.1 °F 87% 29.94 in 10.0 mi Calm Calm - N/A   Mostly Cloudy
6:51 AM 73.0 °F - 69.1 °F 87% 29.94 in 10.0 mi SSW 4.6 mph - N/A   Partly Cloudy
7:51 AM 73.9 °F - 69.1 °F 85% 29.93 in 10.0 mi SW 4.6 mph - N/A   Clear
8:51 AM 75.0 °F - 69.1 °F 82% 29.92 in 10.0 mi South 6.9 mph - N/A   Clear
9:51 AM 75.9 °F - 69.1 °F 79% 29.95 in 10.0 mi SW 6.9 mph - N/A   Scattered Clouds
10:51 AM 75.9 °F - 68.0 °F 76% 29.96 in 10.0 mi Calm Calm - N/A   Overcast
11:51 AM 78.1 °F - 68.0 °F 71% 29.96 in 10.0 mi SSW 6.9 mph - N/A   Partly Cloudy
12:51 PM 82.9 °F 86.5 °F 69.1 °F 63% 29.95 in 10.0 mi SW 9.2 mph - N/A   Partly Cloudy
1:51 PM 82.0 °F 85.5 °F 69.1 °F 65% 29.94 in 10.0 mi West 6.9 mph - N/A   Mostly Cloudy
2:51 PM 84.0 °F 87.8 °F 69.1 °F 61% 29.91 in 10.0 mi SSW 5.8 mph - N/A   Mostly Cloudy
3:51 PM 84.9 °F 88.8 °F 69.1 °F 59% 29.88 in 10.0 mi West 8.1 mph - N/A   Scattered Clouds
4:51 PM 84.9 °F 88.8 °F 69.1 °F 59% 29.86 in 10.0 mi SW 5.8 mph - N/A   Partly Cloudy
5:51 PM 86.0 °F 91.5 °F 71.1 °F 61% 29.83 in 10.0 mi South 4.6 mph - N/A   Clear
6:51 PM 82.9 °F 87.5 °F 71.1 °F 67% 29.83 in 10.0 mi Calm Calm - N/A   Clear
7:51 PM 82.0 °F 86.3 °F 71.1 °F 69% 29.83 in 10.0 mi SSE 4.6 mph - N/A   Partly Cloudy
8:33 PM 80.6 °F 83.9 °F 69.8 °F 70% 29.83 in 8.0 mi SSE 3.5 mph - N/A Thunderstorm Thunderstorm
8:51 PM 81.0 °F 84.9 °F 71.1 °F 72% 29.84 in 4.0 mi West 16.1 mph 25.3 mph N/A Thunderstorm Unknown
8:59 PM 73.4 °F - 64.4 °F 73% 29.87 in 2.0 mi West 11.5 mph 40.3 mph 0.00 in Rain , Thunderstorm Heavy Thunderstorms and Rain
9:51 PM 69.1 °F - 66.0 °F 90% 29.83 in 4.0 mi South 6.9 mph - 0.19 in Rain , Thunderstorm Thunderstorms and Rain
10:51 PM 69.1 °F - 66.9 °F 93% 29.84 in 10.0 mi SE 5.8 mph - 0.01 in   Mostly Cloudy
11:51 PM 69.1 °F - 66.9 °F 93% 29.83 in 10.0 mi Calm Calm - 0.00 in   Overcast